Simultaneous Nadir Overpasses (SNOs) Predictions

Prediction of SNOs between NOAA-15 and METOP-C Satellite Orbit:

Table of predicted SNOs for the next 14.0 days since TLE Epoch: 12/28/2022
Index Date (NOAA-15) Time (NOAA-15) Lat,Lon (NOAA-15) SZA (NOAA-15 ) Date (METOP-C) Time (METOP-C) Lat,Lon (METOP-C) SZA (METOP-C ) Distance(km) Time Diff (sec)
1 01/10/2023 12:09:05 -81.07,-143.71 75.34 01/10/2023 12:07:54 -81.06,-143.63 75.37 1.48 71
2 01/10/2023 12:59:33 81.06, 23.85 104.67 01/10/2023 12:58:35 81.07, 23.89 104.66 1.19 58
3 01/10/2023 13:50:06 -81.06,-168.79 75.34 01/10/2023 13:49:15 -81.07,-168.77 75.35 1.03 51
4 01/10/2023 14:40:35 81.07, -1.61 104.65 01/10/2023 14:39:57 81.06, -1.62 104.63 0.81 38
5 01/10/2023 15:31:08 -81.07, 165.75 75.36 01/10/2023 15:30:37 -81.06, 165.73 75.38 0.87 31
6 01/10/2023 16:21:36 81.06, -26.70 104.64 01/10/2023 16:21:18 81.07, -26.75 104.64 1.20 18
7 01/10/2023 17:12:09 -81.06, 140.67 75.37 01/10/2023 17:11:58 -81.07, 140.59 75.37 1.60 11
8 01/10/2023 18:02:38 81.07, -52.16 104.62 01/10/2023 18:02:40 81.07, -52.26 104.61 1.81 2
9 01/10/2023 18:53:11 -81.07, 115.21 75.39 01/10/2023 18:53:20 -81.07, 115.09 75.40 2.26 9
10 01/10/2023 19:43:38 81.07, -77.25 104.62 01/10/2023 19:44:00 81.07, -77.39 104.62 2.52 22
11 01/10/2023 20:34:11 -81.07, 90.13 75.39 01/10/2023 20:34:40 -81.07, 89.95 75.39 3.14 29
12 01/10/2023 21:24:40 81.08,-102.71 104.60 01/10/2023 21:25:22 81.07,-102.90 104.59 3.28 42
13 01/10/2023 22:15:13 -81.07, 64.67 75.41 01/10/2023 22:16:01 -81.08, 64.82 75.37 2.71 48
14 01/10/2023 23:05:42 81.08,-128.17 104.58 01/10/2023 23:06:43 81.08,-128.03 104.60 2.66 61



Historial Predications of SNOs between NOAA-15 and METOP-C
